Weather Roundup
Issued by NWS

Home | Current Version | Previous Version | Graphics & Text | Print | Product List | Glossary Off
Versions: 1 2 3 4 5 6 7 8 9 10 11 12 13 14 15 16 17 18 19 20 21 22 23 24 25 26 27 28 29 30 31 32 33 34 35 36 37 38 39 40 41 42 43 44 45 46 47 48 49 50

000
NZUS93 KARX 261810
HRRWXR

CURRENT HOURLY OBSERVATIONS ACROSS
MUCH OF THE UPPER MISSISSIPPI VALLEY
NATIONAL WEATHER SERVICE LA CROSSE WI
100 PM CDT WED JUL 26 2017


...SOUTHEAST MINNESOTA...


CITY           SKY/WX    TMP DP  RH WIND       PRES   REMARKS
ROCHESTER      CLOUDY    74  71  91 SW6       30.02F
ROCHESTER/MAYO CLOUDY    74  71  88 W7        30.02S
WINONA         CLOUDY    77  68  73 SW6       30.01R
AUSTIN         CLOUDY    73  70  88 CALM      30.01F
ALBERT LEA     CLOUDY    73  73 100 CALM      30.03R
DODGE CENTER   LGT RAIN  75  70  83 CALM      30.03S
PRESTON        CLOUDY    73  69  88 S5        30.03F
OWATONNA       LGT RAIN  73  72  94 W6        30.03R
FARIBAULT      CLOUDY    72  72 100 CALM      30.02S
$$

...ELSEWHERE IN MINNESOTA...


CITY           SKY/WX    TMP DP  RH WIND       PRES   REMARKS
MINNEAPOLIS    CLOUDY    78  70  76 NW5       30.00F
INTNL FALLS    PTSUNNY   76  59  55 NW14      29.98S
DULUTH         MOSUNNY   76  61  59 NW7G17    30.00S
RED WING       CLOUDY    73  70  88 CALM      29.98F
REDWOOD FALLS  CLOUDY    80  64  58 NE7       30.03F
MANKATO        CLOUDY    74  70  87 NW5       30.02F
WORTHINGTON    CLOUDY    78  69  73 NE9       30.05F
FAIRMONT       CLOUDY    77  70  79 SE13      30.03S
$$

...SOUTHWEST WISCONSIN...


CITY           SKY/WX    TMP DP  RH WIND       PRES   REMARKS
LA CROSSE      CLOUDY    80  72  76 S10       30.01R
PRAIRIE DU CHI CLOUDY    78  70  74 S5        30.01S
BOSCOBEL       CLOUDY    80  71  74 S5        30.00F
LONE ROCK      CLOUDY    79  73  82 S7        30.01F
PLATTEVILLE    CLOUDY    77  75  93 E3        30.04F
FORT MC COY    CLOUDY    77  70  78 W5        30.02F
CAMP DOUGLAS   MOSUNNY   81  72  74 W7        30.00F
MAUSTON-NEW LI CLOUDY    80  71  73 W5        30.00F
VIROQUA        MOCLDY    76  72  87 CALM      30.03F
WIS DELLS      CLOUDY    81  69  67 SW6       30.02S
$$

...ELSEWHERE IN WISCONSIN...


CITY           SKY/WX    TMP DP  RH WIND       PRES   REMARKS
MILWAUKEE      CLOUDY    84  71  65 W10       30.03F
MADISON        CLOUDY    77  70  79 SW3       30.02F THUNDER
GREEN BAY      MOSUNNY   75  71  87 SW7       29.98F
EAU CLAIRE     CLOUDY    72  71  97 SW6       30.00S
BLACK RVR FLS  LGT RAIN  76  69  79 NW3       30.01S
MEDFORD        CLOUDY    70  68  93 SW5       30.01S
WAUSAU         CLOUDY    71  69  93 W9        30.00R
WIS RAPIDS     CLOUDY    80  70  71 W9        30.02S
MARSHFIELD     CLOUDY    73  67  81 W8        30.02S
RICE LAKE      CLOUDY    75  66  73 W6        30.02S
$$

...NORTHEAST IOWA...


CITY           SKY/WX    TMP DP  RH WIND       PRES   REMARKS
WATERLOO       LGT RAIN  76  70  82 N8        30.00F
DUBUQUE        CLOUDY    77  73  87 SE5       30.04S
DECORAH        PTSUNNY   73  72  94 CALM      30.03F
MASON CITY     CLOUDY    74  70  87 E8        30.04F
CHARLES CITY   RAIN      73  73 100 E6        30.04R
OELWEIN        CLOUDY    77  73  88 CALM      30.02F
$$

...ELSEWHERE IN IOWA...


CITY           SKY/WX    TMP DP  RH WIND       PRES   REMARKS
DES MOINES     CLOUDY    79  73  82 E5        30.00S
IOWA CITY      CLOUDY    84  74  71 S5        30.02F HX  91
FORT DODGE     CLOUDY    72  70  94 NE7       30.01S
MARSHALLTOWN   CLOUDY    78  73  84 N9        29.99F
CEDAR RAPIDS   SUNNY     81  75  83 S7        30.00F
$$

...NORTHERN ILLINOIS...


CITY           SKY/WX    TMP DP  RH WIND       PRES   REMARKS
CHICAGO-OHARE  CLOUDY    84  69  60 SW9       30.03F
CHICAGO-MIDWAY PTSUNNY   84  70  62 S9        30.04F
MOLINE         NOT AVBL
ROCKFORD       CLOUDY    83  73  72 SW6       30.05F
PEORIA         CLOUDY    83  76  79 SW6       30.03F HX  91
$$

NOTE: "FAIR" INDICATES FEW OR NO CLOUDS BELOW 12,000 FEET WITH NO
SIGNIFICANT WEATHER AND/OR OBSTRUCTIONS TO VISIBILITY. WIND
SPEEDS ARE IN MILES-PER-HOUR.




USA.gov is the U.S. government's official web portal to all federal, state and local government web resources and services.